Wappingers Falls, NY

2:35 AM EST on December 08, 2016 (GMT -0500)
Dutchess County

Weather History for KPOU - January, 2015

Change the Weather History Date:

Monday, January 19, 2015

  Actual Average Record
Temperature  
Mean Temperature 37 °F 25 °F  
Max Temperature 42 °F 35 °F 61 °F (1949)
Min Temperature 32 °F 15 °F -18 °F (1971)
Degree Days  
Heating Degree Days 28 40  
Month to date heating degree days 755 752  
Since 1 July heating degree days 2806 3081  
Cooling Degree Days 0 0  
Month to date cooling degree days 0 0  
Year to date cooling degree days 0 0  
Moisture  
Dew Point 25 °F    
Average Humidity 70    
Maximum Humidity 92    
Minimum Humidity 48    
Precipitation  
Precipitation 0.00 in 0.10 in 0.53 in (1987)
Month to date precipitation 2.41 1.92  
Year to date precipitation 2.41 1.92  
Sea Level Pressure  
Sea Level Pressure 29.77 in    
Wind  
Wind Speed 10 mph (West)    
Max Wind Speed 20 mph    
Max Gust Speed 27 mph    
Visibility 10 miles    
Events      
T = Trace of Precipitation, MM = Missing Value Source: NWS Daily Summary

Daily Weather History Graph

Daily Weather History Graph

Search for Another Location

Airport or City:

Trip Planner

Search our weather history database for the weather conditions in past years. The results will help you decide how hot, cold, wet, or windy it might be!

Date:

Astronomy

Jan. 19, 2015 Rise Set
Actual Time 7:18 AM EST 4:54 PM EST
Civil Twilight 6:47 AM EST 5:25 PM EST
Nautical Twilight 6:13 AM EST 5:59 PM EST
Astronomical Twilight 5:40 AM EST 6:32 PM EST
Moon 6:07 AM EST (1/19) 4:20 PM EST (1/19)
Length of Visible Light 10h 37m
Length of Day
9h 36m
Waning Crescent, 1% of the Moon is Illuminated
Jan 19
Waning Crescent
Jan 20
New
Jan 26
First Quarter
Feb 3
Full
Feb 11
Last Quarter

Hourly Weather History & Observations

Time (EST) Temp. Windchill Dew Point Humidity Pressure Visibility Wind Dir Wind Speed Gust Speed Precip Events Conditions
12:53 AM 34.0 °F 27.2 °F 30.9 °F 89% 29.68 in 7.0 mi SW 8.1 mph - N/A   Clear
1:53 AM 32.0 °F - 28.0 °F 85% 29.70 in 7.0 mi Calm Calm - N/A   Partly Cloudy
2:53 AM 37.0 °F 32.4 °F 32.0 °F 82% 29.70 in 10.0 mi SW 5.8 mph - N/A   Mostly Cloudy
3:53 AM 37.0 °F 31.0 °F 30.9 °F 79% 29.70 in 10.0 mi WSW 8.1 mph - N/A   Overcast
4:53 AM 37.0 °F 31.6 °F 30.0 °F 76% 29.71 in 10.0 mi WSW 6.9 mph - N/A   Overcast
5:53 AM 37.9 °F - 28.9 °F 70% 29.72 in 10.0 mi North - - N/A   Overcast
6:53 AM 37.0 °F 32.4 °F 28.9 °F 73% 29.73 in 10.0 mi SW 5.8 mph - N/A   Overcast
7:53 AM 36.0 °F 29.6 °F 28.9 °F 76% 29.74 in 10.0 mi WSW 8.1 mph - N/A   Overcast
8:53 AM 39.0 °F 35.7 °F 28.9 °F 67% 29.75 in 10.0 mi WSW 4.6 mph - N/A   Overcast
9:53 AM 39.0 °F 32.8 °F 27.0 °F 62% 29.76 in 10.0 mi West 9.2 mph - N/A   Overcast
10:53 AM 41.0 °F 33.1 °F 25.0 °F 53% 29.77 in 10.0 mi WNW 15.0 mph 20.7 mph N/A   Overcast
11:53 AM 41.0 °F 35.2 °F 25.0 °F 53% 29.76 in 10.0 mi West 9.2 mph 21.9 mph N/A   Overcast
12:53 PM 41.0 °F 32.8 °F 24.1 °F 51% 29.75 in 10.0 mi West 16.1 mph 21.9 mph N/A   Overcast
1:53 PM 39.9 °F 31.8 °F 21.9 °F 49% 29.76 in 10.0 mi West 15.0 mph 21.9 mph N/A   Overcast
2:53 PM 39.9 °F 32.9 °F 23.0 °F 51% 29.77 in 10.0 mi WNW 11.5 mph - N/A   Overcast
3:53 PM 39.0 °F 31.8 °F 23.0 °F 53% 29.78 in 10.0 mi West 11.5 mph - N/A   Scattered Clouds
4:53 PM 37.9 °F 29.6 °F 21.9 °F 53% 29.80 in 10.0 mi West 13.8 mph 20.7 mph N/A   Overcast
5:53 PM 37.0 °F 31.0 °F 23.0 °F 57% 29.83 in 10.0 mi West 8.1 mph - N/A   Overcast
6:53 PM 37.0 °F 28.5 °F 19.9 °F 50% 29.83 in 10.0 mi West 13.8 mph 23.0 mph N/A   Scattered Clouds
7:53 PM 36.0 °F 29.0 °F 19.0 °F 50% 29.83 in 10.0 mi West 9.2 mph - N/A   Partly Cloudy
8:53 PM 36.0 °F 28.5 °F 19.9 °F 52% 29.83 in 10.0 mi West 10.4 mph - N/A   Mostly Cloudy
9:53 PM 36.0 °F 28.5 °F 19.0 °F 50% 29.85 in 10.0 mi West 10.4 mph 23.0 mph N/A   Overcast
10:53 PM 36.0 °F 29.0 °F 21.0 °F 55% 29.85 in 10.0 mi WSW 9.2 mph - N/A   Overcast
11:53 PM 35.1 °F 25.5 °F 19.9 °F 54% 29.85 in 10.0 mi West 15.0 mph 19.6 mph N/A   Overcast